Find Starlink 30303

NORAD ID: 57677 Int'l Des: 2023-124 Owner: SPXS Country: US Constellation: starlink operational
LEOCIRCULAR

リアルタイム位置

3D地球を読み込み中...

Starlink 30303について

説明を読み込み中...

次回通過

Passes for default location (London). Set your location on the main map for personalized predictions.

高度履歴

Loading altitude history...

軌道要素

1 57677U 23124Q 26125.78097267 -.00001526 00000-0 -39416-4 0 9999
2 57677 53.1598 301.2937 0000990 84.6616 275.4498 15.30206292152310
Epoch: May 5, 2026 • Age: 17 hours

現在のステータス

高度 493.8 km
速度 7.62 km/s
衛星直下点 -51.72°S, 151.33°E
打ち上げ日 Aug 22, 2023
運用期間 2.7 years
タイプ internet

技術仕様

分類 Payload
質量 730.00 kg
乾燥質量 700.00 kg
総質量 730.00 kg
長さ 0.30 m
直径 4.10 m
スパン 29.00 m
形状 Box + pan
製造者 SPXS
バスタイプ Starlink V2M
フェーズステータス In Orbit
所有者/国 SPXS/US

Most Searched